Location: Bowman Observatory
(41.0326°N, 73.6210°W)
Time: 09:52:10
(UTC-04:00)

Cosmos 2297 - Visible Passes

Search period start: 01 August 2015 00:00
Search period end: 11 August 2015 00:00
Orbit: 837 x 858 km, 71.0° (Epoch: 31 July)

Date Brightness Start Highest point End Pass type
(mag) Time Alt. Az. Time Alt. Az. Time Alt. Az.
01 Aug 4.1 00:30:37 54° NE 00:30:37 54° NE 00:35:03 10° NNE visible
01 Aug 5.6 02:12:32 17° WNW 02:14:15 19° NW 02:18:04 10° N visible
02 Aug 4.2 00:17:22 53° NE 00:17:22 53° NE 00:21:45 10° NNE visible
02 Aug 5.6 01:59:16 17° WNW 02:00:56 19° NW 02:04:47 10° N visible
03 Aug 4.2 00:04:05 52° NE 00:04:05 52° NE 00:08:26 10° NNE visible
03 Aug 5.7 01:45:59 17° WNW 01:47:37 19° NW 01:51:31 10° N visible
03 Aug 4.1 23:50:44 52° NE 23:50:44 52° NE 23:55:08 10° NNE visible
04 Aug 5.7 01:32:38 18° WNW 01:34:17 20° NW 01:38:15 10° N visible
04 Aug 4.1 23:37:21 53° ENE 23:37:21 53° ENE 23:41:49 10° NNE visible
05 Aug 5.7 01:19:14 18° WNW 01:20:58 20° NW 01:24:58 10° N visible
05 Aug 4.0 23:23:54 55° ENE 23:23:54 55° ENE 23:28:30 10° NNE visible
06 Aug 5.7 01:05:47 18° WNW 01:07:39 20° NW 01:11:42 10° N visible
06 Aug 3.9 23:10:22 57° ENE 23:10:22 57° ENE 23:15:12 10° NNE visible
07 Aug 5.7 00:52:15 17° W 00:54:19 21° NW 00:58:25 10° N visible
07 Aug 3.7 22:56:45 60° E 22:56:45 60° E 23:01:53 10° NNE visible
08 Aug 5.8 00:38:37 17° W 00:41:00 21° NW 00:45:08 10° N visible
08 Aug 3.6 22:43:00 61° ESE 22:43:00 61° ESE 22:48:34 10° NNE visible
09 Aug 5.8 00:24:52 15° W 00:27:41 21° NW 00:31:51 10° N visible
09 Aug 3.7 22:29:06 56° SE 22:29:41 60° ESE 22:35:15 10° NNE visible
10 Aug 5.8 00:10:57 14° W 00:14:21 22° NW 00:18:35 10° N visible
10 Aug 3.7 22:14:58 45° SSE 22:16:23 58° ESE 22:21:56 10° NNE visible
